Wind_Speed
45 45 45 43 42 43 41 41 41 37 35 31 30 28 26 22 23 22 22 21 18 18 18 17 19 19 19
48 48 46 44 44 45 42 44 39 35 33 29 28 26 24 23 23 22 22 19 18 18 19 18 18 17 17
45 44 42 42 41 40 40 37 37 32 30 31 27 25 24 24 22 22 19 19 18 18 18 18 17 16 15
44 43 41 39 38 39 37 34 32 30 29 30 25 26 26 24 22 21 20 19 20 19 18 17 17 17 18
42 42 41 37 36 35 32 30 27 28 30 28 27 26 23 24 22 21 21 20 19 18 18 18 18 18 19
39 39 39 35 35 33 32 31 31 31 29 31 32 25 25 24 22 21 21 21 20 19 18 19 20 20 20
40 37 35 40 37 36 35 30 29 29 33 34 23 28 22 23 22 22 23 22 21 20 20 20 22 22 22
37 38 37 39 41 38 30 33 31 34 35 29 28 24 22 22 23 23 24 24 23 22 22 23 24 25 25
35 37 35 32 36 39 36 36 39 37 30 26 24 22 23 23 23 23 24 25 25 24 24 26 27 27 27
26 27 25 28 32 36 36 39 34 27 26 25 23 25 24 22 23 24 25 26 27 26 26 28 29 29 30
22 25 29 28 29 28 32 28 26 29 26 24 26 26 24 22 25 26 26 27 28 28 29 29 30 31 31
22 21 21 24 27 27 28 29 32 28 25 25 26 27 25 25 26 26 26 26 27 29 31 31 30 30 32
21 22 24 26 27 28 30 34 30 27 27 27 27 29 26 27 29 30 30 30 31 32 32 30 30 32 33
23 24 25 25 27 29 33 32 30 29 29 30 30 30 29 29 31 32 33 33 33 31 29 30 31 32 32
22 23 23 23 24 29 31 32 30 30 33 32 33 33 33 35 35 34 33 33 31 30 30 31 32 32 31
23 23 22 24 27 30 29 29 32 34 34 35 35 35 36 37 35 34 33 32 30 30 31 33 33 32 30
23 24 25 25 25 27 30 31 31 32 34 35 36 37 36 34 32 33 34 32 31 32 32 33 33 31 30
Wind_Direction
281 279 279 280 277 279 278 280 281 281 282 280 279 279 274 267 273 277 273 271 272 271 270 278 276 280 283
274 273 275 276 278 279 279 281 283 279 279 271 272 268 263 266 268 272 271 270 273 274 273 276 280 279 281
279 279 281 280 280 281 280 277 276 274 272 266 263 259 262 266 266 268 267 271 270 271 273 276 279 277 277
279 281 281 280 278 279 277 272 271 269 262 262 257 259 259 261 265 265 266 265 265 265 267 274 276 276 277
282 283 283 281 280 274 268 268 266 268 265 258 253 259 257 261 259 261 263 263 261 262 266 267 268 271 274
283 281 277 275 276 267 265 259 267 265 258 249 257 250 252 261 261 263 263 260 259 260 265 267 268 270 274
285 284 279 270 270 260 261 273 274 263 253 259 248 249 253 257 260 263 262 261 260 262 267 271 271 270 272
279 279 276 279 266 274 273 269 268 256 255 244 244 248 252 255 260 263 262 261 261 263 269 273 274 272 273
281 282 278 278 274 267 262 264 260 253 247 246 243 245 248 252 259 263 264 264 264 264 268 271 272 273 275
282 284 282 282 275 271 268 256 257 256 247 240 244 248 247 251 259 263 265 266 267 268 270 271 272 274 275
279 275 280 277 276 271 274 260 253 246 240 245 250 248 249 255 262 264 266 267 268 270 271 273 275 276 276
277 279 278 283 279 269 263 254 249 242 243 250 252 254 250 258 263 267 271 274 274 273 273 273 276 277 280
267 271 274 276 275 268 261 254 240 243 246 249 251 259 256 263 269 272 274 277 276 274 275 271 274 279 283
267 268 272 275 275 271 268 247 242 247 247 247 253 260 262 268 270 271 274 275 274 275 273 274 277 281 282
275 273 275 278 283 277 258 250 253 253 253 254 257 260 265 268 269 271 273 272 272 272 274 277 280 280 282
273 271 273 272 268 262 259 261 259 257 257 259 261 263 267 270 272 272 270 270 270 272 276 279 279 280 281
271 270 269 269 270 270 269 269 269 269 269 270 270 271 270 270 270 269 271 271 270 274 277 278 278 277 279
Height
5718 5716 5714 5712 5711 5710 5709 5709 5708 5707 5707 5707 5708 5707 5706 5706 5706 5706 5706 5706 5706 5707 5708 5708 5708 5708 5707
5703 5702 5700 5699 5699 5699 5698 5697 5697 5697 5697 5698 5698 5698 5699 5698 5699 5699 5700 5700 5699 5700 5701 5702 5702 5701 5701
5691 5690 5688 5688 5687 5687 5687 5686 5686 5686 5688 5688 5689 5690 5691 5691 5691 5692 5692 5693 5693 5693 5694 5695 5695 5695 5695
5680 5679 5677 5676 5676 5676 5677 5676 5676 5677 5678 5680 5680 5681 5683 5684 5683 5685 5685 5686 5687 5687 5687 5688 5688 5688 5689
5668 5668 5667 5666 5665 5666 5666 5667 5667 5668 5668 5670 5672 5672 5674 5677 5676 5677 5678 5679 5680 5680 5681 5681 5682 5682 5683
5657 5656 5656 5656 5656 5657 5657 5658 5658 5658 5659 5661 5663 5664 5665 5668 5669 5669 5670 5671 5672 5673 5674 5675 5675 5676 5676
5647 5646 5646 5646 5646 5646 5647 5647 5649 5650 5651 5652 5654 5655 5657 5660 5661 5662 5663 5664 5665 5666 5667 5668 5668 5668 5668
5637 5636 5636 5635 5635 5636 5636 5639 5640 5641 5642 5643 5645 5648 5650 5652 5653 5654 5655 5656 5657 5658 5659 5660 5660 5660 5660
5626 5625 5625 5624 5625 5627 5627 5629 5630 5631 5633 5635 5638 5640 5642 5644 5645 5646 5647 5648 5650 5650 5650 5651 5651 5651 5651
5616 5616 5616 5615 5616 5617 5618 5619 5621 5624 5626 5628 5630 5632 5634 5635 5637 5638 5639 5640 5641 5641 5641 5642 5642 5642 5642
5606 5608 5608 5608 5609 5609 5610 5612 5614 5617 5619 5621 5623 5624 5626 5628 5629 5630 5631 5632 5632 5632 5632 5632 5632 5632 5632
5599 5600 5601 5601 5601 5602 5604 5605 5607 5610 5612 5614 5616 5617 5618 5620 5620 5621 5622 5622 5622 5622 5622 5622 5622 5622 5621
5592 5592 5593 5594 5594 5595 5595 5597 5600 5602 5604 5606 5607 5609 5610 5611 5612 5612 5613 5613 5612 5612 5612 5612 5612 5612 5611
5584 5585 5585 5586 5586 5586 5588 5590 5592 5594 5595 5597 5598 5600 5601 5601 5602 5603 5603 5603 5602 5602 5602 5602 5602 5601 5600
5577 5577 5577 5577 5578 5579 5581 5582 5584 5585 5586 5588 5589 5590 5591 5591 5591 5592 5592 5591 5591 5591 5591 5591 5591 5590 5589
5569 5569 5569 5570 5572 5572 5573 5574 5575 5576 5577 5578 5579 5579 5580 5580 5580 5580 5580 5581 5581 5581 5581 5580 5580 5579 5578
5561 5562 5563 5563 5563 5564 5564 5565 5565 5566 5568 5569 5569 5568 5569 5569 5570 5568 5569 5570 5570 5570 5570 5569 5568 5568 5567